Location: Cormont
(50.5693°N, 1.7416°E)
Time: 07:20:47
(UTC+00:00)

STARLINK-37 - Pass Details

Date: 21 October 2019
Orbit: 550 x 553 km, 53.0° (Epoch: 13 November)

Event Time Altitude Azimuth Distance (km) Brightness Sun altitude
Rises 19:04:16 0° 285° (WNW) 2,727 8.7 -22.0°
Reaches altitude 10° 19:06:31 10° 287° (WNW) 1,831 7.4 -22.4°
Enters shadow 19:10:37 70° 5° (N) 589 3.6 -23.0°
